Date,TemperatureHighF,TemperatureAvgF,TemperatureLowF,DewpointHighF,DewpointAvgF,DewpointLowF,HumidityHigh,HumidityAvg,HumidityLow,PressureMaxIn,PressureMinIn,WindSpeedMaxMPH,WindSpeedAvgMPH,GustSpeedMaxMPH,PrecipitationSumIn
2013-1-1,100.0,82.5,68.7,66.8,62.8,54.5,87,56,23,29.88,29.70,15,2,15,0.00
2013-1-2,81.0,71.8,68.6,69.0,65.0,61.9,94,80,58,30.02,29.69,32,7,32,0.00
2013-1-3,78.6,71.7,67.1,63.6,61.7,59.7,84,71,55,30.05,29.97,6,1,15,0.00
2013-1-4,79.5,73.2,66.1,65.7,63.9,62.2,90,74,58,30.00,29.90,19,3,21,0.00
2013-1-5,86.9,76.0,68.8,69.1,65.7,63.1,84,72,48,30.01,29.91,15,3,18,0.00
2013-1-6,83.0,75.6,68.9,68.3,66.0,63.3,88,73,55,30.15,30.00,14,2,15,0.00
2013-1-7,83.2,75.2,67.9,68.4,66.1,64.2,90,74,55,30.16,29.92,13,2,14,0.00
2013-1-8,98.5,83.2,67.7,67.9,63.4,53.8,88,56,26,29.91,29.40,16,2,17,0.00
2013-1-9,87.3,74.5,69.2,67.3,60.5,48.8,86,65,29,29.70,29.29,31,6,31,0.00
2013-1-10,77.2,71.7,68.6,64.7,61.9,59.2,83,72,61,29.84,29.69,12,2,15,0.00
2013-1-11,88.4,77.4,66.8,73.3,69.1,64.0,91,77,57,29.84,29.66,18,2,19,0.00
2013-1-12,101.3,83.1,70.7,74.3,70.4,64.2,93,70,32,29.86,29.64,25,4,30,0.00
2013-1-13,81.5,72.6,66.7,71.2,68.7,65.7,98,88,70,29.87,29.62,17,4,21,0.28
2013-1-14,70.3,66.5,64.4,66.0,62.5,57.1,98,88,64,30.01,29.78,20,8,27,0.28
2013-1-15,77.5,70.6,65.0,63.7,60.2,53.8,86,70,55,30.09,29.97,14,2,21,0.67
2013-1-16,83.0,73.3,63.4,67.4,63.9,60.8,93,74,49,29.96,29.82,14,2,14,0.00
2013-1-17,83.7,75.6,67.7,71.6,68.9,66.2,97,81,62,29.88,29.69,9,2,17,0.00
2013-1-18,106.3,85.4,71.4,73.3,68.8,60.8,90,62,25,29.70,29.47,31,3,35,0.00
2013-1-19,72.8,71.0,67.2,69.0,65.4,61.9,94,83,78,29.97,29.66,27,9,33,0.03
2013-1-20,68.9,67.1,65.3,68.0,66.5,64.7,99,98,96,30.00,29.92,10,2,13,0.90
2013-1-21,80.6,73.1,66.8,70.2,68.4,66.0,99,86,65,29.98,29.88,13,1,13,0.00
2013-1-22,86.0,75.9,68.0,72.3,69.2,66.3,97,81,58,29.86,29.73,13,2,14,0.00
2013-1-23,71.5,70.6,67.8,69.5,68.3,65.7,96,92,85,30.00,29.82,25,8,25,0.00
2013-1-24,79.9,72.5,67.6,72.9,69.6,64.2,98,91,76,30.00,29.90,19,4,19,0.12
2013-1-25,84.3,76.4,69.2,73.8,71.4,68.6,99,85,63,29.92,29.79,16,2,17,0.01
2013-1-26,84.0,77.1,71.8,75.3,71.8,70.5,96,84,69,29.88,29.79,9,3,18,0.01
2013-1-27,74.5,70.9,69.2,71.7,70.2,68.9,100,97,89,29.81,29.73,14,2,14,5.04
2013-1-28,70.7,69.3,67.1,70.7,69.2,66.8,100,99,98,29.79,29.60,25,4,32,5.34
2013-1-29,82.5,71.3,66.6,74.9,69.3,65.0,100,94,70,29.80,29.51,24,5,24,0.12
2013-1-30,75.7,70.8,67.5,70.5,68.1,65.8,98,91,82,29.96,29.81,19,4,19,0.01
2013-1-31,82.0,75.0,68.5,72.5,70.1,67.7,98,86,70,29.95,29.71,14,2,14,0.01
2013-2-1,88.7,71.2,63.7,73.0,68.1,62.5,100,91,57,29.73,29.59,27,5,37,0.99
2013-2-2,67.9,62.9,58.8,64.9,59.3,52.8,100,89,64,29.88,29.62,33,14,36,1.58
2013-2-3,69.5,64.4,59.0,63.9,57.8,53.7,90,79,70,30.03,29.83,25,10,33,1.58
2013-2-4,74.4,68.2,63.5,66.2,63.8,61.6,98,87,69,30.20,30.01,26,6,27,0.09
2013-2-5,75.8,68.6,63.4,67.8,63.8,61.6,98,86,65,30.22,30.15,13,2,15,0.09
2013-2-6,79.1,72.0,64.8,64.7,61.4,58.5,88,70,50,30.17,30.03,7,1,15,0.07
2013-2-7,80.8,72.3,64.0,65.3,62.6,60.0,90,73,53,30.06,29.97,16,2,16,0.00
2013-2-8,84.3,74.4,64.8,67.9,64.3,60.7,88,72,49,30.06,29.97,16,2,16,0.00
2013-2-9,84.3,74.9,67.3,70.0,67.0,64.0,90,77,54,30.02,29.88,16,3,18,0.00
2013-2-10,87.0,75.8,68.3,71.1,67.9,65.0,97,78,55,30.07,29.88,27,3,27,0.03
2013-2-11,71.3,68.6,65.8,68.1,66.6,63.3,98,93,88,30.07,29.98,30,7,30,0.04
2013-2-12,77.2,70.2,65.9,70.0,65.5,60.8,99,86,66,30.15,30.00,9,1,12,0.80
2013-2-13,79.0,70.5,64.1,61.6,59.4,55.8,87,69,48,30.20,30.11,12,1,12,0.00
2013-2-14,81.3,70.4,64.5,66.2,61.0,56.6,89,73,48,30.17,30.08,11,1,11,0.00
2013-2-15,77.8,70.1,66.2,66.9,64.3,60.6,94,82,65,30.15,30.07,9,1,10,0.02
2013-2-16,80.0,72.1,66.8,66.8,63.7,60.8,92,76,58,30.14,30.07,12,1,12,0.00
2013-2-17,78.7,70.6,65.3,67.6,61.6,56.8,93,74,60,30.14,30.07,13,1,13,0.35
2013-2-18,80.8,71.2,64.1,67.8,63.9,60.8,93,79,62,30.10,29.99,15,1,15,0.00
2013-2-19,81.2,72.9,65.5,71.1,66.8,63.2,94,82,63,30.00,29.89,7,1,13,0.00
2013-2-20,82.5,74.2,67.9,70.9,68.2,66.1,97,83,66,30.01,29.90,5,1,14,0.11
2013-2-21,81.8,74.3,67.6,69.6,66.6,64.5,91,78,62,30.03,29.95,12,2,12,0.06
2013-2-22,77.3,70.1,65.9,67.3,65.4,62.2,96,85,69,30.00,29.92,16,3,18,0.83
2013-2-23,75.0,70.7,67.1,72.9,69.7,66.2,100,97,90,29.91,29.68,21,4,24,4.65
2013-2-24,82.1,75.0,71.3,75.0,72.1,70.2,99,91,77,29.97,29.78,15,3,16,0.00
2013-2-25,76.3,71.9,70.4,72.0,70.4,69.5,98,95,87,30.04,29.93,11,2,13,0.00
2013-2-26,80.5,72.8,68.3,71.5,68.4,66.1,97,87,72,30.06,29.98,13,2,18,0.01
2013-2-27,80.8,73.1,67.6,69.3,66.7,65.3,94,81,67,30.01,29.84,15,2,18,0.00
2013-2-28,83.5,72.9,64.9,71.1,67.5,64.3,100,84,63,29.87,29.70,21,3,21,0.23
2013-3-1,69.6,65.6,62.9,69.6,65.5,62.8,100,100,99,29.96,29.70,30,7,30,3.80
2013-3-2,65.7,63.3,60.3,65.7,63.3,60.3,100,100,100,30.10,29.95,25,4,27,1.36
2013-3-3,76.2,69.8,66.1,68.7,65.8,63.3,98,87,76,30.11,30.04,16,2,16,0.06
2013-3-4,78.5,71.4,65.9,67.1,64.6,62.6,91,79,65,30.15,30.06,12,1,12,0.00
2013-3-5,78.8,72.4,67.1,68.0,64.6,62.0,89,77,60,30.14,30.07,15,2,16,0.00
2013-3-6,80.1,72.8,66.6,68.2,65.2,61.4,94,78,54,30.12,30.03,10,1,15,0.00
2013-3-7,79.8,71.8,64.8,66.7,64.4,62.3,95,79,59,30.11,30.03,13,1,13,0.00
2013-3-8,80.3,71.8,65.0,66.6,64.7,62.2,94,79,58,30.17,30.08,13,1,15,0.00
2013-3-9,79.6,72.6,67.4,68.8,65.6,63.6,91,79,61,30.15,30.06,15,2,15,0.00
2013-3-10,79.8,72.0,64.8,67.4,64.2,60.6,92,78,56,30.11,30.01,13,2,13,0.00
2013-3-11,80.5,72.9,67.8,68.9,66.1,63.5,94,80,58,30.13,30.03,12,1,12,0.01
2013-3-12,79.3,72.6,65.7,67.9,65.1,62.3,96,78,61,30.12,30.00,13,1,13,0.00
2013-3-13,78.0,71.3,65.5,66.8,64.9,63.3,96,81,65,30.02,29.83,10,1,12,0.00
2013-3-14,79.8,70.9,64.1,68.5,63.4,58.6,93,79,50,29.92,29.78,12,2,12,0.00
2013-3-15,77.0,71.5,67.5,70.7,68.3,65.1,97,90,76,30.01,29.89,21,4,21,0.01
2013-3-16,81.5,72.5,65.9,68.3,66.6,64.2,99,83,62,29.99,29.74,10,1,12,0.01
2013-3-17,70.7,68.1,63.4,70.0,60.4,53.9,98,77,59,30.05,29.71,36,11,36,0.04
2013-3-18,70.7,64.9,57.7,60.3,57.1,55.0,92,77,60,30.18,30.02,17,4,19,0.04
2013-3-19,75.4,67.0,59.3,61.9,59.3,56.9,93,77,55,30.26,30.14,10,1,10,0.00
2013-3-20,77.0,69.5,62.5,65.0,61.5,58.6,93,77,57,30.26,30.15,13,1,14,0.00
2013-3-21,80.0,71.1,63.8,67.1,62.8,58.8,88,76,53,30.17,29.94,15,2,15,0.00
2013-3-22,88.2,76.4,67.1,71.3,67.0,63.6,89,74,52,29.98,29.90,10,1,11,0.00
2013-3-23,83.9,76.2,70.7,70.5,66.1,62.8,89,71,53,30.01,29.89,18,2,18,0.00
2013-3-24,85.8,75.8,69.4,72.7,70.4,67.0,98,84,59,29.99,29.84,6,1,10,0.00
2013-3-25,76.8,73.1,69.2,71.9,68.2,62.8,97,85,71,30.07,29.92,17,4,19,0.00
2013-3-26,83.3,75.3,70.7,73.0,70.7,68.7,98,86,68,30.09,29.98,12,2,17,0.00
2013-3-27,83.8,74.9,67.8,70.5,67.7,65.8,95,79,57,30.09,29.98,14,2,14,0.00
2013-3-28,84.0,74.9,68.1,70.2,67.6,65.1,91,79,62,30.03,29.88,21,2,21,0.00
2013-3-29,70.2,66.3,60.8,68.3,58.9,54.3,98,77,66,30.07,29.89,27,5,27,0.18
2013-3-30,74.4,66.8,59.4,62.2,58.0,52.9,92,74,48,30.06,29.86,12,1,12,0.00
2013-3-31,75.4,68.2,64.3,62.8,60.5,55.2,92,78,52,29.97,29.78,17,3,17,0.09
2013-4-1,69.8,64.7,60.8,65.5,62.7,59.9,99,93,83,30.04,29.94,17,3,17,1.35
2013-4-2,72.7,67.0,61.1,64.2,60.1,55.8,96,80,57,30.00,29.91,15,2,15,0.01
2013-4-3,70.0,65.6,62.2,65.1,60.4,56.9,96,84,72,30.20,30.00,15,2,17,0.57
2013-4-4,71.0,64.4,59.8,64.8,60.4,56.4,99,88,68,30.36,30.20,16,1,16,1.31
2013-4-5,72.2,64.3,63.4,60.3,53.7,-99.9,86,72,59,30.37,-32.77,6,-18,6,0.00
2013-4-6,75.0,65.0,59.3,62.9,60.4,57.7,97,86,58,30.34,30.21,12,1,12,1.17
2013-4-7,73.8,64.7,59.3,64.6,60.6,58.3,99,87,67,30.24,30.15,11,1,12,0.02
2013-4-8,73.7,65.9,60.0,63.6,60.4,57.8,96,83,63,30.25,30.17,12,1,13,0.01
2013-4-9,71.2,63.9,60.4,64.6,60.8,57.8,97,90,74,30.28,30.19,12,1,13,0.73
2013-4-10,74.8,66.0,60.0,63.8,60.7,58.8,99,84,60,30.25,30.15,9,1,10,0.02
2013-4-11,76.5,67.2,60.9,62.8,59.9,57.3,92,79,57,30.23,30.14,10,1,10,0.00
2013-4-12,76.3,69.1,62.8,64.0,61.1,57.8,94,77,61,30.27,30.17,11,1,11,0.00
2013-4-13,76.3,68.4,63.2,64.1,61.5,58.1,92,79,65,30.16,29.98,11,1,11,0.00
2013-4-14,78.5,68.0,60.8,66.2,62.3,59.4,96,83,57,29.96,29.84,9,1,9,0.00
2013-4-15,78.7,68.8,61.3,67.1,62.8,58.1,97,83,52,29.84,29.73,5,1,6,0.02
2013-4-16,69.8,66.3,62.4,66.4,62.5,59.0,97,88,76,29.94,29.79,29,5,29,0.43
2013-4-17,71.0,64.6,58.9,64.0,60.6,58.2,98,87,69,29.99,29.91,16,4,16,0.08
2013-4-18,71.7,65.4,60.4,63.4,60.9,59.0,97,86,70,29.94,29.85,12,2,14,0.01
2013-4-19,63.9,62.0,59.7,61.1,52.7,42.6,93,73,51,29.92,29.83,32,10,32,0.06
2013-4-20,61.1,57.2,53.9,59.3,53.8,42.1,99,89,58,29.96,29.80,23,7,23,3.13
2013-4-21,65.4,59.3,53.6,57.8,54.3,51.3,95,84,67,29.98,29.88,23,6,25,0.01
2013-4-22,74.2,64.1,57.9,58.9,55.3,50.9,91,75,46,29.87,29.74,13,1,13,0.00
2013-4-23,70.5,64.1,58.0,56.6,51.3,47.1,76,64,48,29.98,29.83,20,4,21,0.00
2013-4-24,70.8,63.1,58.1,57.3,52.8,49.1,88,70,50,30.09,29.97,19,3,19,0.00
2013-4-25,66.8,61.5,54.9,56.4,52.5,46.9,92,73,53,30.17,30.05,18,3,20,0.00
2013-4-26,73.3,63.7,57.4,57.5,51.0,46.2,87,64,44,30.21,30.11,17,4,18,0.00
2013-4-27,76.3,65.7,58.1,61.6,55.4,48.5,88,70,48,30.18,30.05,10,2,10,0.00
2013-4-28,81.5,68.2,59.1,59.3,54.5,46.7,90,64,31,30.11,30.02,17,1,17,0.00
2013-4-29,79.5,68.5,60.4,62.2,54.7,48.2,84,63,40,30.19,30.07,12,1,12,0.00
2013-4-30,73.3,67.5,64.0,68.3,65.1,60.7,99,92,84,30.24,30.15,17,2,17,0.00
2013-5-1,68.2,65.5,65.1,65.4,65.0,64.2,99,98,87,30.14,29.99,13,1,13,0.01
2013-5-2,67.9,63.5,59.1,61.2,53.4,47.8,92,70,56,30.29,30.02,29,8,29,0.14
2013-5-3,70.8,62.1,55.5,55.9,53.3,48.1,90,74,50,30.30,30.12,12,2,13,0.00
2013-5-4,72.0,64.3,56.4,58.6,51.7,44.6,90,65,38,30.18,29.99,26,5,26,0.00
2013-5-5,64.8,61.9,59.0,54.3,50.5,47.8,78,66,58,30.22,30.14,19,5,20,0.00
2013-5-6,66.0,59.4,53.0,57.7,53.1,49.1,90,80,62,30.27,30.18,20,4,21,0.00
2013-5-7,67.6,60.8,55.1,60.2,57.3,54.3,98,89,75,30.37,30.26,5,1,12,0.14
2013-5-8,67.8,61.8,56.0,61.1,57.4,54.0,96,86,72,30.43,30.33,7,1,13,0.01
2013-5-9,72.2,63.6,58.0,60.8,56.9,54.3,94,80,54,30.42,30.34,3,0,9,0.00
2013-5-10,68.6,62.0,56.3,59.9,55.8,53.3,91,80,59,30.42,30.34,5,2,12,0.00
2013-5-11,71.5,63.6,58.1,62.9,58.6,56.1,95,84,73,30.41,30.32,5,1,14,0.00
2013-5-12,70.6,63.6,57.8,62.2,58.9,55.3,97,85,69,30.32,30.18,4,1,9,0.00
2013-5-13,71.8,63.5,57.9,61.4,58.3,55.1,94,84,64,30.16,29.93,3,1,7,0.01
2013-5-14,63.5,61.0,57.2,59.4,57.2,53.1,95,87,80,29.91,29.84,12,4,21,0.01
2013-5-15,66.2,58.4,52.0,51.9,45.4,42.1,84,63,47,29.95,29.83,11,5,23,0.00
2013-5-16,68.4,61.4,54.5,51.7,49.0,46.2,76,64,51,29.89,29.77,8,3,20,0.00
2013-5-17,64.5,59.0,54.2,49.0,44.9,38.8,75,61,42,29.93,29.82,13,7,25,0.00
2013-5-18,63.2,57.4,52.0,47.0,43.3,41.0,70,60,48,29.97,29.88,10,5,22,0.00
2013-5-19,61.4,57.2,49.7,43.5,41.4,38.4,73,56,44,30.03,29.95,11,6,23,0.00
2013-5-20,62.7,55.5,49.0,46.3,42.5,40.2,75,62,47,30.07,29.97,11,6,23,0.00
2013-5-21,69.2,62.1,55.1,48.5,45.2,42.9,70,55,43,30.02,29.88,11,6,22,0.00
2013-5-22,61.9,58.3,55.0,55.4,51.4,46.3,97,78,69,29.95,29.77,6,2,12,0.20
2013-5-23,65.1,58.3,55.0,57.5,55.5,52.9,99,91,74,29.93,29.74,5,2,17,2.06
2013-5-24,64.1,60.5,57.0,57.9,54.6,49.5,96,81,64,30.06,29.91,7,4,27,0.31
2013-5-25,63.9,60.3,55.1,59.3,53.4,48.5,96,78,64,30.23,30.07,12,3,21,0.55
2013-5-26,65.5,57.6,51.5,55.0,50.1,45.8,93,77,56,30.28,30.20,8,3,16,0.00
2013-5-27,58.7,54.6,50.8,56.4,51.3,47.3,99,89,69,30.42,30.23,10,3,17,0.09
2013-5-28,66.6,59.6,54.7,60.2,57.1,54.1,99,92,73,30.49,30.39,4,1,10,0.27
2013-5-29,69.9,63.0,58.6,57.0,55.3,52.9,89,77,59,30.46,30.35,6,2,17,0.00
2013-5-30,62.2,57.6,55.3,54.4,53.4,52.2,92,86,74,30.41,30.34,3,1,11,0.00
2013-5-31,70.8,62.7,55.8,60.9,57.4,52.9,95,84,56,30.37,30.24,3,1,11,0.01
2013-6-1,68.2,61.0,57.4,59.0,56.2,54.3,93,85,69,30.22,29.98,3,1,7,0.00
2013-6-2,60.6,56.2,53.2,58.4,55.2,49.5,99,96,85,29.92,29.63,25,10,44,1.49
2013-6-3,60.6,56.8,52.0,53.5,50.3,46.2,97,79,60,30.15,29.94,18,11,34,0.24
2013-6-4,61.2,55.8,51.1,56.6,49.6,44.6,95,80,72,30.28,30.16,11,6,21,0.01
2013-6-5,66.7,58.3,53.7,58.9,55.5,52.9,97,91,74,30.30,30.19,2,0,5,0.00
2013-6-6,67.0,61.0,55.5,58.5,55.7,52.2,96,83,65,30.24,30.13,2,0,5,0.01
2013-6-7,66.5,63.1,59.9,60.9,57.7,54.5,92,83,75,30.22,30.08,11,2,18,0.02
2013-6-8,62.2,60.0,58.3,57.4,54.3,49.7,93,81,69,30.42,30.26,7,1,15,0.05
2013-6-9,67.2,59.8,54.3,58.9,53.0,48.4,94,79,64,30.36,30.24,3,1,7,0.00
2013-6-10,69.7,62.4,54.4,59.3,56.6,53.2,96,82,62,30.19,30.06,6,2,10,0.01
2013-6-11,65.5,59.6,55.4,56.7,54.8,51.3,94,85,64,30.14,30.03,9,4,16,0.00
2013-6-12,66.9,59.3,56.8,61.7,57.2,55.4,98,93,80,30.03,29.80,15,2,30,0.30
2013-6-13,65.7,59.7,55.3,57.6,54.3,50.8,99,83,65,29.79,29.68,6,2,15,0.03
2013-6-14,62.4,57.7,53.8,51.7,49.6,47.0,90,75,60,29.74,29.64,11,4,22,0.00
2013-6-15,60.6,57.7,52.4,50.1,47.6,44.3,92,70,56,29.88,29.70,17,8,29,0.06
2013-6-16,59.2,55.8,51.4,47.4,45.1,43.7,77,67,60,29.94,29.85,11,7,21,0.00
2013-6-17,59.9,53.7,47.6,48.9,45.5,42.2,82,74,63,29.83,29.73,13,8,26,0.00
2013-6-18,59.8,53.7,49.5,49.4,45.5,43.7,87,74,61,29.96,29.82,12,7,21,0.01
2013-6-19,59.4,52.8,49.4,53.7,50.4,46.7,98,92,70,30.19,29.97,14,7,29,1.15
2013-6-20,54.5,51.2,48.2,52.9,50.0,47.6,98,96,91,30.21,30.10,11,5,21,1.09
2013-6-21,59.1,53.2,49.1,53.5,49.4,46.6,96,87,77,30.14,30.05,11,6,19,0.06
2013-6-22,53.8,50.6,46.9,52.7,49.5,45.7,98,96,90,30.27,30.14,12,6,20,0.87
2013-6-23,59.5,53.3,49.9,57.0,52.5,49.6,100,97,87,30.34,30.23,8,2,15,0.48
2013-6-24,51.9,51.8,51.7,51.6,51.5,51.3,99,99,99,30.21,30.19,6,4,12,0.00
2013-6-25,58.1,52.1,47.5,48.7,46.3,44.2,92,81,68,30.00,29.94,9,3,17,0.00
2013-6-26,64.6,58.3,49.7,60.2,55.1,47.0,99,90,81,30.10,29.95,11,5,20,0.14
2013-6-27,63.2,59.6,57.4,58.8,57.0,54.8,97,91,81,30.16,30.08,3,1,10,0.17
2013-6-28,63.2,57.2,55.4,59.3,55.9,54.3,99,96,87,30.22,30.14,5,0,7,0.33
2013-6-29,60.7,56.2,54.1,58.9,55.2,53.1,99,97,87,30.24,30.15,2,0,6,1.06
2013-6-30,57.7,55.7,54.2,56.9,54.9,53.2,99,97,91,30.23,30.16,5,1,14,0.83
2013-7-1,62.3,57.8,55.5,60.4,57.2,53.9,100,98,91,30.20,30.13,4,1,13,0.61
2013-7-2,61.4,57.6,54.1,56.8,54.9,52.4,98,91,84,30.21,30.13,11,4,19,0.00
2013-7-3,64.3,55.9,49.5,54.8,52.1,48.7,98,88,67,30.25,30.15,6,2,12,0.02
2013-7-4,68.6,58.3,49.5,58.1,53.3,48.8,98,84,61,30.12,29.91,4,1,11,0.01
2013-7-5,68.3,61.9,56.3,54.3,47.6,41.1,86,62,40,30.01,29.83,13,4,25,0.00
2013-7-6,59.4,53.1,47.1,40.1,37.3,30.9,71,56,36,30.20,30.03,11,6,22,0.00
2013-7-7,59.9,52.6,46.8,48.1,40.1,37.4,79,63,46,30.36,30.22,9,4,17,0.00
2013-7-8,59.4,52.6,46.5,45.6,42.1,38.9,79,68,53,30.46,30.36,7,3,16,0.00
2013-7-9,59.2,53.7,49.0,53.1,48.5,41.4,94,83,68,30.52,30.42,10,3,20,0.08
2013-7-10,59.0,53.8,50.0,53.8,50.8,48.2,97,90,80,30.51,30.43,4,0,6,0.09
2013-7-11,61.4,55.9,51.0,55.1,52.2,49.5,96,88,78,30.55,30.45,5,1,11,0.01
2013-7-12,58.7,54.3,49.7,54.0,51.6,48.3,98,91,82,30.46,30.32,6,1,13,0.00
2013-7-13,63.4,56.5,50.8,57.3,53.2,49.4,97,89,79,30.37,30.30,5,1,11,0.02
2013-7-14,66.0,58.5,53.2,56.2,52.7,50.0,96,82,57,30.35,30.26,3,1,6,0.00
2013-7-15,66.0,59.0,54.9,57.9,55.1,52.6,95,87,69,30.27,30.19,3,0,10,0.00
2013-7-16,68.0,60.3,55.5,59.3,55.9,53.6,96,86,62,30.27,30.19,3,0,5,0.00
2013-7-17,70.3,61.9,55.0,59.9,56.7,54.1,97,84,62,30.25,30.15,4,1,11,0.01
2013-7-18,70.5,61.5,54.7,60.3,57.4,53.9,98,87,67,30.22,30.09,3,1,10,0.02
2013-7-19,72.1,63.2,58.5,59.5,57.1,54.6,95,81,60,30.07,29.91,5,2,12,0.09
2013-7-20,63.2,59.4,57.5,57.5,54.2,42.5,94,84,55,29.88,29.73,8,2,18,0.09
2013-7-21,59.6,54.3,49.4,42.4,37.8,32.1,68,55,36,30.07,29.91,10,4,18,0.00
2013-7-22,61.4,53.9,47.5,43.7,39.3,37.1,77,59,43,30.12,30.04,10,3,19,0.00
2013-7-23,60.1,53.9,48.1,43.3,39.9,35.6,73,59,50,30.14,30.05,14,7,26,0.00
2013-7-24,59.4,53.8,47.6,55.5,49.7,40.3,99,86,68,30.32,30.15,15,10,33,0.54
2013-7-25,60.5,55.0,48.8,49.6,47.5,44.6,86,76,64,30.38,30.30,10,5,19,0.00
2013-7-26,65.8,56.8,48.8,51.3,46.2,38.1,93,71,42,30.32,30.21,7,2,16,0.00
2013-7-27,64.9,55.4,48.4,54.9,47.5,39.5,91,75,57,30.42,30.30,9,3,16,0.00
2013-7-28,66.9,58.1,48.6,56.9,52.7,47.8,98,83,65,30.41,30.29,4,2,11,0.01
2013-7-29,70.3,60.9,54.6,57.1,53.2,48.9,90,77,48,30.29,30.15,3,1,9,0.00
2013-7-30,67.9,60.4,56.2,55.5,51.2,45.2,93,73,47,30.14,30.02,8,2,19,0.00
2013-7-31,63.1,59.1,55.6,56.7,53.8,49.7,99,83,71,30.18,30.07,13,7,26,0.65
2013-8-1,61.8,56.7,49.9,54.1,51.4,47.8,94,83,72,30.18,30.10,10,5,20,0.00
2013-8-2,66.8,57.2,49.1,54.0,50.5,47.3,95,80,55,30.10,29.92,5,1,14,0.01
2013-8-3,63.4,58.1,52.2,46.3,42.8,40.2,68,57,46,30.01,29.89,14,6,30,0.00
2013-8-4,64.0,58.1,52.4,47.2,43.4,40.1,67,58,49,30.01,29.89,15,6,27,0.00
2013-8-5,64.5,57.1,50.8,45.3,41.9,39.1,70,57,43,30.07,29.95,12,4,23,0.00
2013-8-6,70.7,60.5,49.2,48.5,43.6,40.1,79,56,35,30.01,29.82,10,3,22,0.00
2013-8-7,64.8,59.9,55.1,55.3,50.3,41.3,88,71,49,29.90,29.77,9,2,16,0.00
2013-8-8,54.5,51.7,47.5,52.6,47.7,39.1,99,87,57,29.91,29.67,22,9,41,0.80
2013-8-9,62.1,55.7,48.8,51.3,44.3,40.7,86,66,49,30.07,29.94,13,7,25,0.00
2013-8-10,70.0,62.4,57.2,53.9,41.6,34.1,79,47,37,30.00,29.92,12,6,24,0.00
2013-8-11,68.6,60.3,51.9,52.7,47.0,42.5,76,62,43,30.05,29.92,12,4,19,0.00
2013-8-12,79.9,65.9,56.9,55.2,47.4,42.8,78,53,33,29.89,29.59,15,5,34,0.00
2013-8-13,68.2,59.0,51.4,44.6,38.0,29.5,74,47,29,29.99,29.86,12,5,22,0.00
2013-8-14,71.3,60.1,52.0,47.5,39.8,28.8,66,49,22,29.98,29.80,5,2,13,0.00
2013-8-15,60.2,56.7,51.2,43.2,38.6,33.1,70,51,37,30.18,29.80,17,7,35,0.00
2013-8-16,66.9,57.1,48.5,53.3,46.0,39.3,84,67,49,30.22,30.00,3,2,13,0.00
2013-8-17,73.0,63.3,55.2,55.0,51.5,46.9,87,66,50,29.95,29.76,10,3,23,0.00
2013-8-18,71.0,60.9,52.1,51.2,41.5,36.1,69,50,30,30.06,29.91,11,3,20,0.00
2013-8-19,70.5,61.6,53.1,46.9,39.7,34.9,73,46,29,29.93,29.72,13,4,26,0.00
2013-8-20,58.4,52.9,47.1,36.8,33.3,28.1,63,48,36,29.99,29.84,13,8,24,0.00
2013-8-21,60.1,52.4,43.7,41.6,36.4,31.7,68,55,42,30.00,29.91,11,6,23,0.00
2013-8-22,63.9,55.3,48.9,42.3,38.4,35.6,66,54,37,29.98,29.85,12,4,24,0.00
2013-8-23,66.8,59.7,51.4,44.3,42.1,38.6,76,53,42,29.92,29.80,17,8,35,0.00
2013-8-24,65.1,59.8,55.1,53.5,48.9,45.1,86,68,53,30.19,29.95,12,5,22,0.00
2013-8-25,71.9,61.2,52.5,57.3,52.3,48.4,90,74,50,30.25,30.12,3,1,9,0.00
2013-8-26,67.5,59.7,53.7,54.4,49.4,43.4,89,69,52,30.24,30.10,16,5,25,0.00
2013-8-27,69.6,60.0,53.8,55.6,50.8,47.1,95,73,47,30.17,30.04,8,2,15,0.00
2013-8-28,68.0,59.4,52.1,55.1,51.1,45.8,92,75,46,30.19,30.06,13,4,22,0.00
2013-8-29,70.3,62.1,53.8,60.5,55.4,51.1,94,79,61,30.23,30.08,4,1,15,0.00
2013-8-30,76.5,67.5,60.8,61.9,58.7,53.6,85,74,56,30.06,29.87,4,2,15,0.00
2013-8-31,72.9,65.4,59.0,56.8,50.4,43.2,87,60,35,30.22,30.00,11,3,21,0.00
2013-9-1,70.4,63.2,55.9,59.7,56.0,51.4,89,78,61,30.37,30.23,5,1,14,0.00
2013-9-2,71.3,62.7,57.5,58.0,55.7,52.5,95,79,52,30.44,30.34,4,1,11,0.01
2013-9-3,72.2,64.1,57.8,60.2,56.6,54.6,91,77,60,30.51,30.41,3,1,12,0.00
2013-9-4,70.5,63.0,56.2,57.0,55.0,52.8,90,76,57,30.50,30.35,4,2,14,0.00
2013-9-5,79.8,64.9,55.3,59.4,54.6,46.5,93,72,33,30.37,30.22,8,2,14,0.00
2013-9-6,74.6,67.9,62.3,65.0,55.7,49.2,90,66,46,30.30,30.19,8,3,19,0.00
2013-9-7,84.0,72.4,61.6,58.3,51.5,39.7,84,52,22,30.21,30.06,10,3,22,0.00
2013-9-8,71.1,66.6,63.4,64.8,62.3,59.7,97,87,73,30.24,30.14,12,3,22,0.00
2013-9-9,75.3,68.2,63.7,65.3,63.0,60.2,93,84,70,30.21,29.89,3,2,13,0.00
2013-9-10,84.6,75.8,64.5,62.6,50.0,44.3,93,44,25,29.83,29.59,9,3,22,0.00
2013-9-11,76.8,67.8,59.2,54.2,39.8,30.7,66,39,19,29.89,29.71,11,5,25,0.00
2013-9-12,70.1,63.6,57.3,51.7,45.7,39.5,70,53,37,29.97,29.82,8,3,17,0.00
2013-9-13,65.7,58.3,51.0,53.8,50.7,47.5,95,77,55,30.15,30.01,14,3,29,0.09
2013-9-14,76.0,65.1,57.9,61.1,57.5,52.9,97,78,50,29.98,29.73,11,5,23,0.25
2013-9-15,65.0,59.3,55.4,59.0,55.6,51.5,97,88,75,30.07,29.92,11,4,19,0.34
2013-9-16,64.3,60.2,56.8,61.5,57.3,53.6,99,91,80,30.03,29.69,4,2,15,0.48
2013-9-17,72.1,62.7,56.6,62.0,56.8,52.2,99,82,55,29.62,29.52,6,2,20,1.02
2013-9-18,75.6,67.6,59.7,54.9,50.2,43.1,80,56,33,29.65,29.55,10,4,29,0.00
2013-9-19,72.7,66.6,61.0,50.5,43.1,37.1,65,44,28,29.76,29.57,10,5,20,0.00
2013-9-20,72.6,63.0,55.2,45.2,39.8,28.4,60,44,22,29.86,29.65,17,8,33,0.02
2013-9-21,67.3,60.0,53.4,52.0,45.4,41.5,80,59,44,29.95,29.86,11,6,20,0.00
2013-9-22,72.3,62.5,53.4,56.9,52.1,48.1,90,70,47,29.96,29.87,5,2,12,0.00
2013-9-23,84.2,69.5,58.1,56.5,52.4,41.3,85,57,23,29.93,29.71,7,2,14,0.00
2013-9-24,83.2,73.7,68.0,54.1,43.8,35.3,58,35,20,29.75,29.53,10,2,20,0.00
2013-9-25,83.5,72.4,66.2,56.3,49.3,42.6,59,45,30,29.82,29.72,9,4,16,0.00
2013-9-26,93.4,77.2,63.9,54.6,44.0,25.3,70,34,15,29.92,29.59,22,6,39,0.08
2013-9-27,70.4,62.9,56.2,53.8,41.1,31.9,76,46,30,30.12,29.98,11,5,19,0.00
2013-9-28,84.5,70.9,56.5,55.1,42.8,23.5,86,47,11,29.93,29.70,13,4,26,0.00
2013-9-29,71.7,65.0,59.5,58.3,46.4,32.4,84,52,30,30.03,29.88,11,4,18,0.00
2013-9-30,79.5,67.4,56.9,59.9,53.3,46.0,88,63,34,30.04,29.85,4,2,12,0.00
2013-10-1,88.4,70.6,62.5,63.3,55.3,47.4,85,60,33,29.86,29.61,18,4,31,0.13
2013-10-2,74.2,65.7,57.7,59.8,52.0,44.9,86,62,42,30.01,29.77,8,3,16,0.00
2013-10-3,66.6,59.1,50.0,52.7,47.2,41.7,98,68,45,30.07,29.71,14,5,29,0.74
2013-10-4,61.6,53.9,48.2,55.2,50.5,45.0,97,88,74,30.16,30.07,13,6,24,0.76
2013-10-5,73.0,62.6,52.2,58.3,54.0,50.2,95,75,48,30.10,29.84,3,1,12,0.01
2013-10-6,84.9,71.6,62.4,57.0,46.5,36.0,56,41,19,29.87,29.65,9,3,16,0.00
2013-10-7,74.4,66.3,61.4,62.2,51.4,36.9,85,61,26,29.91,29.62,17,8,33,0.02
2013-10-8,69.0,61.6,56.3,57.9,55.1,51.6,97,80,60,30.08,29.86,6,1,15,0.12
2013-10-9,79.7,65.6,52.4,57.7,53.0,45.7,95,67,33,30.12,29.90,6,2,12,0.00
2013-10-10,92.5,79.7,63.5,54.1,42.9,27.6,67,32,10,29.94,29.63,8,3,20,0.00
2013-10-11,77.2,66.6,62.9,63.6,57.0,40.5,88,73,28,29.98,29.57,18,4,36,0.01
2013-10-12,80.0,69.4,60.5,65.7,62.1,58.4,95,79,60,29.99,29.75,5,2,16,0.00
2013-10-13,91.8,79.2,66.6,65.1,53.3,27.3,94,50,11,29.73,29.42,15,4,38,0.13
2013-10-14,72.4,59.6,52.4,65.3,50.7,45.5,99,74,54,30.08,29.58,21,7,35,0.48
2013-10-15,71.6,60.1,52.6,48.5,41.9,35.7,70,52,29,30.20,30.08,10,5,19,0.00
2013-10-16,77.3,67.8,55.6,58.6,48.8,38.8,78,53,26,30.12,29.91,4,2,13,0.00
2013-10-17,90.5,73.5,63.1,59.4,51.1,38.4,79,50,19,29.93,29.66,13,4,29,0.02
2013-10-18,68.6,63.5,58.4,54.3,49.5,42.3,84,61,44,30.32,29.99,14,4,30,0.01
2013-10-19,73.3,64.8,55.6,60.7,52.3,42.4,93,66,34,30.33,30.19,6,2,17,0.00
2013-10-20,78.3,69.0,61.1,65.3,62.3,59.6,96,80,59,30.20,29.99,4,2,14,0.01
2013-10-21,85.0,73.2,62.7,66.8,62.9,57.4,95,73,41,30.01,29.87,3,2,13,0.00
2013-10-22,75.8,68.9,65.3,67.9,65.4,62.8,96,89,75,29.96,29.84,12,4,23,0.00
2013-10-23,94.4,77.2,67.3,66.0,60.6,44.6,94,64,22,29.79,29.58,13,4,32,0.00
2013-10-24,78.6,68.6,59.6,62.3,51.0,37.3,90,57,23,30.10,29.78,13,5,27,0.00
2013-10-25,70.2,61.5,55.9,55.0,48.0,40.9,74,62,43,30.20,30.06,6,3,15,0.00
2013-10-26,68.7,62.9,57.2,57.0,49.8,38.1,83,63,38,30.17,30.04,12,5,23,0.00
2013-10-27,72.8,65.4,57.9,57.7,55.1,51.8,85,70,55,30.19,30.08,5,2,14,0.00
2013-10-28,78.0,68.1,61.6,63.2,59.3,56.7,89,75,50,30.14,29.86,5,1,13,0.00
2013-10-29,74.6,65.2,56.8,63.5,59.9,54.1,99,84,56,29.93,29.63,22,4,44,1.11
2013-10-30,67.8,62.1,57.5,58.9,53.8,50.8,94,75,58,30.10,29.92,12,4,26,0.06
2013-10-31,72.9,64.1,56.8,57.2,54.3,50.8,87,72,53,30.17,30.06,4,1,14,0.00
2013-11-1,73.5,66.4,59.8,60.1,58.3,56.3,89,76,60,30.21,30.09,4,2,14,0.00
2013-11-2,80.6,68.7,60.4,63.7,59.4,55.8,93,74,51,30.11,29.86,4,2,14,0.00
2013-11-3,91.0,76.4,62.5,64.4,49.8,36.2,87,46,15,30.05,29.69,13,4,28,0.02
2013-11-4,62.9,60.8,58.5,50.5,46.1,42.5,68,59,48,30.28,30.02,16,8,32,0.02
2013-11-5,66.2,62.0,57.4,53.7,49.8,44.2,80,65,51,30.31,30.24,9,5,21,0.00
2013-11-6,73.1,64.7,55.6,56.5,52.6,47.5,83,66,47,30.25,30.06,5,2,15,0.00
2013-11-7,62.2,60.6,57.9,56.3,55.1,53.8,87,82,79,30.06,30.00,3,2,12,0.00
2013-11-8,84.0,72.9,64.5,66.3,62.3,54.8,91,72,44,29.90,29.69,4,2,16,0.00
2013-11-9,89.7,73.9,64.8,67.3,62.5,58.2,93,69,37,29.88,29.62,10,3,25,0.16
2013-11-10,67.9,63.9,60.2,61.6,59.2,57.1,95,85,72,30.01,29.88,9,3,25,0.55
2013-11-11,68.5,64.0,60.9,65.4,62.4,59.2,98,95,88,29.99,29.87,11,3,21,1.31
2013-11-12,72.6,65.1,60.6,65.3,62.1,59.2,98,91,74,29.94,29.82,9,2,16,0.38
2013-11-13,78.5,68.9,60.7,67.4,62.6,55.1,98,82,47,29.94,29.83,8,2,14,0.01
2013-11-14,76.8,69.3,61.6,66.0,58.0,52.3,99,70,46,29.94,29.82,10,3,22,0.01
2013-11-15,77.1,68.2,62.0,63.0,60.8,58.4,94,78,58,29.95,29.88,6,2,13,0.00
2013-11-16,67.2,62.1,56.4,64.4,59.2,55.8,99,90,76,29.94,29.87,13,2,30,1.50
2013-11-17,62.7,59.0,57.0,60.7,57.5,53.5,100,95,74,29.91,29.85,14,9,27,3.78
2013-11-18,72.2,62.5,57.4,63.9,60.1,57.1,100,92,65,29.85,29.74,10,3,21,2.85
2013-11-19,70.2,64.6,58.9,65.7,62.4,58.6,99,93,81,29.83,29.77,15,6,27,0.04
2013-11-20,77.0,68.2,61.7,67.2,64.3,61.7,100,88,66,29.88,29.80,4,2,10,0.01
2013-11-21,76.8,70.4,64.7,67.4,65.4,63.9,99,85,69,29.88,29.78,4,2,15,0.01
2013-11-22,74.5,68.0,65.1,68.5,65.1,63.4,98,90,79,29.85,29.69,5,3,15,0.31
2013-11-23,75.0,65.3,61.6,67.0,63.6,60.6,99,94,70,29.74,29.58,8,1,13,0.85
2013-11-24,73.9,66.7,61.3,63.5,60.4,55.6,99,81,58,29.75,29.59,14,5,25,0.01
2013-11-25,71.9,64.6,58.4,63.1,59.7,54.9,98,84,70,29.89,29.68,16,5,36,0.24
2013-11-26,69.3,62.4,54.7,58.8,55.9,53.9,98,80,63,30.02,29.86,12,5,20,0.60
2013-11-27,75.2,65.4,58.1,58.8,55.7,51.0,90,72,46,30.03,29.92,7,3,16,0.00
2013-11-28,80.7,70.2,59.9,66.2,62.1,57.9,95,77,55,29.95,29.63,4,2,13,0.00
2013-11-29,75.1,66.1,60.2,66.6,63.1,56.7,99,91,55,29.89,29.50,15,6,26,0.63
2013-11-30,71.7,63.5,58.1,60.1,56.8,53.9,97,79,63,30.19,29.89,6,2,13,0.08
2013-12-1,73.6,64.5,58.2,59.5,56.1,52.4,96,75,55,30.25,30.16,3,1,9,0.00
2013-12-2,77.4,67.3,59.5,58.7,55.9,51.5,88,68,44,30.21,30.06,3,1,10,0.00
2013-12-3,76.2,67.8,59.7,60.5,58.2,56.0,91,73,54,30.06,29.86,4,2,18,0.00
2013-12-4,82.9,71.4,60.8,67.6,62.9,57.5,91,76,57,29.85,29.47,5,2,13,0.00
2013-12-5,79.0,70.0,58.1,68.9,55.5,36.0,96,64,25,29.73,29.37,18,6,35,0.24
2013-12-6,71.5,62.5,55.4,53.7,44.6,38.8,79,53,36,30.05,29.72,15,7,23,0.00
2013-12-7,77.5,66.8,58.0,59.8,54.0,49.4,92,65,41,30.12,30.03,3,1,8,0.00
2013-12-8,79.6,70.0,59.7,61.2,58.0,51.8,95,68,46,30.08,29.88,4,2,15,0.00
2013-12-9,87.3,74.6,64.9,67.7,62.9,57.8,87,69,46,29.88,29.60,3,2,10,0.00
2013-12-10,93.9,80.0,68.4,67.5,62.5,52.1,93,58,25,29.69,29.53,9,3,25,0.02
2013-12-11,80.7,72.7,66.2,68.0,64.8,61.0,97,78,53,29.78,29.63,8,2,15,0.00
2013-12-12,78.6,72.1,66.7,67.1,65.2,62.8,97,80,63,29.84,29.74,4,2,14,0.00
2013-12-13,80.8,73.2,65.7,69.8,67.0,64.3,97,82,64,29.87,29.78,4,2,14,0.01
2013-12-14,73.9,69.4,64.9,68.8,65.6,60.4,97,88,74,30.02,29.77,19,6,33,0.02
2013-12-15,78.3,70.1,63.6,65.1,62.9,61.3,96,79,60,30.08,29.98,4,1,11,0.00
2013-12-16,76.4,70.2,64.7,65.4,62.8,60.9,91,78,65,30.14,30.03,5,2,13,0.00
2013-12-17,79.0,70.5,62.1,64.5,62.1,59.9,94,76,53,30.15,30.07,5,2,14,0.00
2013-12-18,79.8,71.3,63.5,64.4,62.1,57.1,94,74,52,30.21,30.09,5,2,13,0.00
2013-12-19,79.4,71.3,64.7,65.1,62.7,61.1,91,75,59,30.17,30.03,5,3,15,0.00
2013-12-20,87.6,75.7,65.3,67.3,63.8,60.1,87,68,49,30.03,29.85,3,2,10,0.00
2013-12-21,75.2,71.7,69.3,69.1,67.2,64.4,97,86,73,29.99,29.84,18,6,28,0.00
2013-12-22,87.2,75.8,68.3,71.5,68.2,66.0,97,79,56,29.98,29.78,4,2,12,0.00
2013-12-23,90.6,78.0,69.0,70.2,66.9,61.9,93,71,39,29.80,29.67,21,2,32,0.00
2013-12-24,71.3,68.6,65.5,68.8,64.9,62.1,98,88,75,30.09,29.81,15,3,25,0.06
2013-12-25,70.0,67.6,66.1,67.5,65.2,61.9,99,92,83,30.08,29.89,3,1,12,0.24
2013-12-26,74.0,69.4,65.2,67.1,65.6,63.1,99,88,75,29.91,29.76,16,5,32,0.45
2013-12-27,77.2,70.5,64.5,67.1,64.3,62.2,96,81,67,29.89,29.80,7,2,17,0.00
2013-12-28,78.8,71.8,64.7,67.6,65.3,62.5,94,81,67,29.88,29.67,4,2,16,0.00
2013-12-29,74.0,68.7,61.8,68.1,63.5,57.1,96,84,70,29.97,29.56,23,6,35,0.00
2013-12-30,76.3,68.4,60.1,60.3,56.9,52.7,85,68,48,29.97,29.83,5,2,14,0.00
2013-12-31,80.5,71.5,63.1,66.5,62.9,59.2,92,76,56,29.99,29.82,5,1,16,0.00
2014-1-1,81.9,73.0,65.2,66.3,64.7,62.5,95,76,56,29.98,29.78,5,2,19,0.00
2014-1-2,97.8,81.0,69.6,70.2,62.3,51.4,93,60,22,29.77,29.56,13,4,25,0.00